Total_Precipitation_Accumulation
0.14 0.13 0.12 0.14 0.11 0.08 0.09 0.08 0.09 0.07 0.05 0.08 0.06 0.06 0.06 0.06 0.04 0.04 0.05 0.05 0.03 0.03 0.03 0.01 0.01 0.02 0.00 0.01 0.00 0.00 0.01 0.01 0.00 0.00 0.00 0.00 0.00 0.00 0.00 0.00 0.00 0.00 0.00 0.00 0.00 0.00 0.00 0.00 0.00 0.00 0.00 0.00 0.00 0.00 0.00 0.00 0.00 0.00 0.08 0.08 0.10 0.05 0.14 0.09 0.13 0.18 0.09 0.24 0.13 0.12 0.11 0.26 0.34 0.22 0.18 0.17 0.20 0.17 0.35 0.30 0.56 0.40 0.84 1.14 1.61 2.37 2.43 2.29
0.14 0.11 0.12 0.11 0.11 0.10 0.09 0.09 0.08 0.08 0.06 0.05 0.06 0.05 0.06 0.05 0.06 0.03 0.05 0.04 0.03 0.02 0.02 0.04 0.01 0.00 0.01 0.00 0.00 0.01 0.01 0.00 0.00 0.00 0.00 0.00 0.00 0.00 0.00 0.00 0.00 0.00 0.00 0.00 0.00 0.00 0.00 0.00 0.00 0.00 0.00 0.00 0.00 0.00 0.00 0.00 0.00 0.03 0.06 0.07 0.21 0.05 0.02 0.02 0.04 0.01 0.18 0.18 0.04 0.13 0.03 0.18 0.19 0.09 0.08 0.31 0.45 0.25 0.48 0.53 1.02 0.85 1.36 1.78 2.03 2.28 2.06 2.06
0.13 0.12 0.13 0.11 0.09 0.09 0.09 0.07 0.07 0.07 0.08 0.06 0.06 0.07 0.06 0.05 0.05 0.06 0.03 0.04 0.03 0.02 0.02 0.02 0.02 0.01 0.00 0.00 0.00 0.02 0.01 0.00 0.00 0.00 0.00 0.00 0.00 0.00 0.00 0.00 0.00 0.00 0.00 0.00 0.00 0.00 0.00 0.00 0.00 0.00 0.00 0.00 0.00 0.00 0.00 0.00 0.06 0.02 0.39 0.19 0.07 0.00 0.01 0.02 0.02 0.08 0.10 0.15 0.16 0.13 0.09 0.07 0.08 0.25 0.02 0.24 0.36 0.23 0.40 1.10 1.56 1.12 1.25 1.55 2.02 1.94 2.15 1.56
0.11 0.11 0.12 0.10 0.09 0.09 0.09 0.08 0.08 0.08 0.07 0.08 0.06 0.06 0.06 0.06 0.05 0.06 0.06 0.05 0.03 0.03 0.04 0.03 0.01 0.01 0.01 0.00 0.00 0.01 0.00 0.00 0.00 0.00 0.00 0.00 0.00 0.00 0.00 0.00 0.00 0.00 0.00 0.00 0.00 0.00 0.00 0.00 0.00 0.00 0.00 0.00 0.00 0.00 0.01 0.00 0.10 0.01 0.03 0.05 0.02 0.00 0.10 0.02 0.01 0.02 0.07 0.07 0.05 0.11 0.13 0.15 0.06 0.17 0.39 0.38 0.30 0.77 0.87 0.73 1.05 1.06 1.15 1.12 1.25 2.10 2.67 2.86
0.11 0.11 0.11 0.08 0.09 0.08 0.09 0.09 0.08 0.07 0.07 0.07 0.06 0.06 0.09 0.06 0.05 0.05 0.07 0.05 0.04 0.05 0.04 0.02 0.01 0.01 0.00 0.01 0.01 0.00 0.00 0.00 0.00 0.00 0.00 0.00 0.00 0.00 0.00 0.00 0.00 0.00 0.00 0.00 0.00 0.00 0.00 0.00 0.00 0.00 0.00 0.00 0.00 0.01 0.01 0.00 0.00 0.00 0.00 0.00 0.00 0.00 0.09 0.01 0.00 0.01 0.04 0.01 0.06 0.13 0.20 0.13 0.10 0.09 0.32 0.14 0.46 0.98 0.81 1.57 0.81 1.07 1.06 1.33 1.86 2.79 2.38 2.70
0.09 0.10 0.11 0.08 0.08 0.08 0.11 0.07 0.08 0.07 0.08 0.07 0.06 0.06 0.06 0.07 0.06 0.07 0.05 0.06 0.05 0.04 0.03 0.03 0.02 0.01 0.00 0.01 0.00 0.00 0.00 0.00 0.00 0.00 0.00 0.00 0.00 0.00 0.00 0.00 0.00 0.00 0.00 0.00 0.00 0.00 0.00 0.00 0.00 0.00 0.00 0.00 0.01 0.07 0.00 0.00 0.00 0.14 0.00 0.00 0.00 0.00 0.07 0.02 0.02 0.01 0.01 0.02 0.04 0.04 0.07 0.07 0.18 0.18 0.14 0.13 0.15 0.59 0.99 1.53 1.00 0.90 1.13 1.54 2.54 2.54 2.67 3.07
0.11 0.09 0.08 0.09 0.08 0.09 0.10 0.10 0.08 0.12 0.08 0.07 0.07 0.05 0.05 0.06 0.05 0.04 0.07 0.06 0.05 0.05 0.02 0.03 0.02 0.01 0.00 0.00 0.00 0.00 0.00 0.00 0.00 0.00 0.00 0.00 0.00 0.00 0.00 0.00 0.00 0.00 0.00 0.00 0.00 0.00 0.00 0.00 0.00 0.02 0.01 0.00 0.00 0.00 0.00 0.00 0.00 0.00 0.03 0.01 0.01 0.00 0.00 0.01 0.02 0.01 0.05 0.02 0.11 0.08 0.09 0.07 0.10 0.35 0.18 0.23 0.73 0.71 1.32 1.49 1.43 1.51 2.11 2.04 2.78 2.37 2.84 2.91
0.11 0.07 0.08 0.08 0.11 0.12 0.07 0.08 0.09 0.06 0.09 0.07 0.07 0.07 0.05 0.06 0.06 0.05 0.04 0.06 0.07 0.03 0.03 0.03 0.01 0.00 0.00 0.00 0.00 0.00 0.00 0.00 0.00 0.00 0.00 0.00 0.00 0.00 0.00 0.00 0.00 0.00 0.00 0.00 0.00 0.00 0.00 0.00 0.00 0.00 0.03 0.11 0.01 0.00 0.00 0.00 0.00 0.09 0.31 0.00 0.01 0.00 0.01 0.01 0.05 0.01 0.03 0.03 0.04 0.07 0.21 0.20 0.03 0.14 0.17 0.35 0.59 0.77 1.09 1.18 1.59 1.74 2.34 2.40 1.53 2.47 3.42 4.27
0.10 0.09 0.09 0.09 0.09 0.06 0.05 0.06 0.06 0.07 0.06 0.06 0.06 0.04 0.07 0.07 0.07 0.05 0.06 0.07 0.05 0.05 0.03 0.02 0.01 0.00 0.02 0.02 0.00 0.01 0.00 0.00 0.00 0.00 0.00 0.00 0.00 0.00 0.00 0.00 0.00 0.00 0.00 0.00 0.00 0.00 0.00 0.00 0.00 0.02 0.10 0.02 0.00 0.02 0.01 0.01 0.01 0.00 0.00 0.00 0.00 0.00 0.00 0.01 0.01 0.07 0.04 0.12 0.03 0.15 0.15 0.06 0.08 0.14 0.21 0.38 0.47 0.64 0.91 1.37 1.31 1.61 2.06 1.82 1.70 2.14 2.58 2.45
0.10 0.09 0.08 0.08 0.06 0.05 0.05 0.08 0.06 0.07 0.06 0.08 0.06 0.06 0.08 0.09 0.06 0.10 0.05 0.04 0.05 0.06 0.03 0.03 0.01 0.02 0.01 0.02 0.01 0.00 0.00 0.00 0.00 0.00 0.00 0.00 0.00 0.00 0.00 0.00 0.00 0.00 0.00 0.00 0.00 0.00 0.00 0.00 0.01 0.00 0.01 0.00 0.03 0.03 0.00 0.00 0.10 0.00 0.00 0.00 0.00 0.00 0.01 0.01 0.05 0.04 0.09 0.13 0.05 0.29 0.23 0.20 0.05 0.16 0.81 0.62 0.71 0.93 0.94 1.35 1.81 2.16 1.89 1.70 1.55 1.73 2.90 2.08
0.09 0.11 0.06 0.07 0.06 0.07 0.06 0.07 0.06 0.06 0.17 0.06 0.08 0.09 0.06 0.06 0.07 0.05 0.06 0.04 0.06 0.05 0.04 0.03 0.04 0.01 0.05 0.01 0.01 0.00 0.00 0.00 0.00 0.00 0.00 0.00 0.00 0.00 0.00 0.00 0.00 0.00 0.00 0.00 0.00 0.00 0.00 0.00 0.00 0.00 0.00 0.00 0.01 0.00 0.01 0.00 0.00 0.01 0.00 0.01 0.01 0.01 0.00 0.01 0.02 0.06 0.11 0.11 0.04 0.19 0.31 0.14 0.10 0.14 0.31 0.53 0.93 1.11 0.69 1.37 1.92 1.85 1.66 2.39 1.40 2.22 2.31 2.47
0.12 0.11 0.09 0.05 0.11 0.13 0.05 0.10 0.08 0.12 0.06 0.10 0.07 0.05 0.06 0.04 0.05 0.04 0.03 0.05 0.04 0.04 0.02 0.04 0.04 0.09 0.02 0.04 0.04 0.00 0.00 0.00 0.00 0.00 0.00 0.00 0.00 0.00 0.00 0.00 0.00 0.00 0.00 0.00 0.00 0.00 0.00 0.00 0.00 0.01 0.11 0.00 0.01 0.00 0.00 0.00 0.02 0.00 0.01 0.19 0.04 0.04 0.10 0.06 0.12 0.11 0.06 0.08 0.13 0.05 0.08 0.33 0.13 0.45 0.33 0.57 0.84 0.98 1.05 1.58 1.80 1.82 2.20 1.89 2.55 2.66 2.53 3.26
0.08 0.07 0.09 0.17 0.11 0.11 0.09 0.08 0.08 0.10 0.07 0.09 0.10 0.06 0.05 0.04 0.03 0.05 0.04 0.08 0.07 0.04 0.03 0.05 0.02 0.07 0.10 0.08 0.00 0.00 0.00 0.00 0.00 0.00 0.00 0.00 0.00 0.00 0.00 0.00 0.00 0.00 0.00 0.00 0.00 0.00 0.00 0.00 0.00 0.00 0.00 0.00 0.00 0.03 0.07 0.00 0.00 0.03 0.01 0.15 0.20 0.21 0.16 0.08 0.06 0.13 0.06 0.14 0.09 0.10 0.79 0.56 0.37 0.33 0.40 0.27 0.67 0.76 1.04 1.95 2.42 2.72 2.40 3.36 2.98 1.87 2.31 2.42
0.09 0.08 0.09 0.09 0.09 0.06 0.09 0.08 0.07 0.10 0.09 0.05 0.10 0.06 0.04 0.05 0.04 0.09 0.09 0.05 0.06 0.07 0.07 0.05 0.08 0.08 0.28 0.02 0.00 0.00 0.00 0.00 0.00 0.00 0.00 0.00 0.00 0.00 0.00 0.00 0.00 0.00 0.00 0.00 0.00 0.00 0.00 0.00 0.00 0.00 0.00 0.03 0.02 0.00 0.01 0.00 0.06 0.48 0.16 0.08 0.41 0.23 0.20 0.05 0.14 0.11 0.07 0.13 0.05 0.31 0.53 0.62 0.74 0.71 0.36 0.37 0.62 1.27 1.82 1.90 2.87 3.16 2.20 2.22 2.18 2.05 1.95 2.65
0.08 0.14 0.17 0.19 0.13 0.13 0.12 0.10 0.08 0.06 0.11 0.11 0.07 0.04 0.04 0.14 0.06 0.04 0.16 0.19 0.09 0.05 0.05 0.07 0.06 0.09 0.16 0.00 0.00 0.00 0.00 0.00 0.00 0.00 0.00 0.00 0.00 0.00 0.00 0.00 0.00 0.00 0.00 0.00 0.00 0.00 0.00 0.00 0.00 0.00 0.06 0.00 0.00 0.00 0.15 0.17 0.11 0.12 0.40 0.26 0.20 0.44 0.38 0.30 0.19 0.16 0.17 0.11 0.07 0.30 0.38 0.60 0.35 0.35 1.05 0.50 1.20 1.70 1.30 1.59 2.35 2.34 2.00 1.79 1.83 1.64 1.73 1.42
0.13 0.13 0.14 0.10 0.09 0.20 0.08 0.08 0.13 0.06 0.13 0.11 0.11 0.06 0.05 0.04 0.05 0.05 0.06 0.15 0.06 0.14 0.07 0.09 0.09 0.06 0.02 0.02 0.00 0.00 0.00 0.00 0.00 0.00 0.00 0.00 0.00 0.00 0.00 0.00 0.00 0.00 0.00 0.00 0.00 0.01 0.00 0.00 0.11 0.06 0.00 0.00 0.03 0.14 0.25 0.11 0.18 0.15 0.29 0.45 0.49 0.21 0.25 0.13 0.07 0.04 0.11 0.11 0.01 0.15 0.57 0.44 0.34 0.57 0.73 0.98 1.63 1.10 0.77 1.81 1.68 2.10 2.07 2.14 1.55 2.76 1.56 1.62
0.17 0.11 0.15 0.09 0.09 0.06 0.07 0.19 0.11 0.12 0.09 0.07 0.06 0.06 0.05 0.06 0.06 0.12 0.07 0.16 0.11 0.08 0.14 0.07 0.03 0.05 0.18 0.00 0.00 0.00 0.00 0.00 0.00 0.00 0.00 0.00 0.00 0.00 0.00 0.00 0.00 0.00 0.00 0.00 0.00 0.00 0.00 0.00 0.00 0.00 0.00 0.25 0.28 0.21 0.45 0.36 0.14 0.24 0.30 0.54 0.27 0.31 0.31 0.22 0.11 0.06 0.02 0.13 0.26 0.08 0.21 0.29 0.21 0.12 0.40 1.53 1.37 1.15 0.73 0.91 1.62 1.21 1.04 0.72 1.20 0.96 1.45 1.20
0.28 0.11 0.16 0.20 0.06 0.07 0.07 0.09 0.08 0.13 0.12 0.11 0.09 0.07 0.08 0.11 0.07 0.12 0.11 0.15 0.16 0.09 0.10 0.04 0.03 0.12 0.01 0.00 0.00 0.00 0.00 0.00 0.00 0.00 0.00 0.00 0.00 0.00 0.00 0.00 0.00 0.00 0.01 0.05 0.00 0.09 0.00 0.00 0.00 0.28 0.06 0.10 0.17 0.41 0.37 0.45 0.40 0.19 0.14 0.37 0.24 0.15 0.12 0.29 0.22 0.33 0.17 0.09 0.33 0.21 0.15 0.29 0.25 0.31 0.32 0.13 0.71 0.76 1.09 1.16 1.74 1.57 1.05 0.82 0.90 1.26 1.07 1.10
0.12 0.16 0.10 0.23 0.19 0.13 0.10 0.20 0.11 0.07 0.09 0.09 0.12 0.09 0.07 0.11 0.17 0.19 0.17 0.17 0.21 0.40 0.19 0.19 0.13 0.07 0.09 0.00 0.00 0.00 0.00 0.00 0.00 0.00 0.00 0.00 0.00 0.00 0.00 0.00 0.00 0.01 0.05 0.02 0.07 0.05 0.00 0.00 0.09 0.03 0.38 0.13 0.26 0.15 0.19 0.03 0.12 0.16 0.21 0.12 0.13 0.31 0.12 0.20 0.04 0.17 0.16 0.20 0.19 0.19 0.56 0.40 0.35 0.27 0.45 0.52 0.55 0.59 1.29 1.50 1.39 1.37 1.79 1.36 1.35 1.07 1.09 1.05
0.15 0.17 0.15 0.15 0.19 0.13 0.13 0.12 0.11 0.19 0.31 0.10 0.13 0.13 0.16 0.15 0.31 0.20 0.22 0.29 0.17 0.04 0.01 0.01 0.00 0.00 0.00 0.00 0.00 0.00 0.00 0.00 0.00 0.00 0.00 0.00 0.00 0.00 0.00 0.00 0.00 0.02 0.02 0.10 0.04 0.12 0.00 0.08 0.11 0.24 0.14 0.10 0.03 0.04 0.02 0.19 0.04 0.06 0.04 0.05 0.17 0.24 0.08 0.05 0.08 0.07 0.11 0.21 0.14 0.12 0.18 0.11 0.13 0.26 0.14 0.15 0.24 1.14 1.47 2.18 2.53 2.56 1.38 0.69 1.16 0.67 1.07 1.10
0.20 0.16 0.17 0.13 0.20 0.21 0.18 0.13 0.09 0.09 0.25 0.30 0.16 0.24 0.23 0.15 0.13 0.30 0.09 0.12 0.07 0.02 0.01 0.02 0.01 0.00 0.00 0.00 0.00 0.00 0.00 0.00 0.00 0.00 0.00 0.00 0.00 0.00 0.01 0.00 0.00 0.02 0.03 0.02 0.09 0.02 0.02 0.08 0.08 0.08 0.05 0.03 0.02 0.02 0.03 0.04 0.07 0.14 0.09 0.14 0.12 0.09 0.19 0.08 0.09 0.04 0.03 0.21 0.39 0.15 0.11 0.11 0.12 0.16 0.16 0.24 0.18 0.62 0.49 0.62 0.62 1.07 1.20 1.08 1.00 0.92 0.58 1.35
0.15 0.17 0.21 0.19 0.19 0.24 0.13 0.12 0.16 0.15 0.19 0.28 0.31 0.35 0.12 0.11 0.10 0.07 0.15 0.17 0.02 0.01 0.01 0.00 0.00 0.01 0.00 0.00 0.00 0.00 0.00 0.00 0.00 0.00 0.00 0.00 0.00 0.05 0.01 0.02 0.00 0.07 0.00 0.01 0.01 0.08 0.02 0.25 0.02 0.05 0.03 0.01 0.02 0.03 0.08 0.06 0.05 0.17 0.12 0.08 0.29 0.22 0.07 0.02 0.06 0.08 0.12 0.27 0.18 0.18 0.22 0.33 0.32 0.29 0.17 0.17 0.14 0.21 0.15 0.11 0.19 0.52 0.68 0.70 0.64 0.71 1.38 1.73
0.27 0.16 0.18 0.22 0.28 0.33 0.29 0.12 0.14 0.36 0.28 0.39 0.57 0.13 0.23 0.20 0.12 0.21 0.09 0.18 0.03 0.01 0.02 0.00 0.00 0.00 0.00 0.00 0.00 0.00 0.00 0.00 0.00 0.00 0.00 0.00 0.00 0.00 0.00 0.01 0.02 0.02 0.00 0.00 0.04 0.02 0.26 0.16 0.01 0.01 0.03 0.01 0.01 0.01 0.01 0.04 0.08 0.16 0.09 0.23 0.32 0.11 0.31 0.36 0.15 0.05 0.09 0.12 0.10 0.07 0.24 0.40 0.14 0.17 0.13 0.21 0.22 0.20 0.14 0.16 0.27 0.88 0.96 0.62 0.85 0.66 0.99 0.83
0.16 0.26 0.23 0.28 0.34 0.38 0.22 0.15 0.18 0.30 0.57 0.27 0.40 0.27 0.27 0.31 0.12 0.11 0.36 0.50 0.05 0.00 0.00 0.00 0.00 0.00 0.00 0.00 0.00 0.00 0.00 0.00 0.00 0.00 0.00 0.00 0.00 0.00 0.00 0.00 0.01 0.00 0.05 0.01 0.02 0.17 0.12 0.01 0.02 0.00 0.02 0.05 0.05 0.02 0.08 0.10 0.14 0.08 0.12 0.12 0.09 0.12 0.10 0.05 0.20 0.13 0.06 0.02 0.01 0.05 0.19 0.50 0.67 0.44 0.28 0.24 0.43 0.88 1.11 0.98 0.60 0.61 0.47 1.30 1.63 1.35 0.94 1.23
0.28 0.32 0.38 0.21 0.49 0.36 0.30 0.29 0.20 0.25 0.28 0.66 0.40 0.64 0.29 0.22 0.12 0.21 0.37 0.23 0.09 0.01 0.00 0.00 0.00 0.00 0.00 0.00 0.00 0.00 0.00 0.00 0.00 0.01 0.11 0.00 0.00 0.00 0.00 0.00 0.01 0.05 0.02 0.02 0.00 0.02 0.08 0.01 0.00 0.02 0.01 0.00 0.00 0.02 0.04 0.07 0.17 0.08 0.12 0.20 0.09 0.04 0.04 0.02 0.02 0.22 0.39 0.40 0.16 0.34 0.52 0.80 0.65 0.26 0.29 0.36 0.36 1.11 1.81 1.41 0.47 0.86 1.02 1.30 1.75 1.27 1.96 1.90
0.25 0.29 0.26 0.25 0.41 0.34 0.47 0.30 0.43 0.40 0.43 0.69 0.63 0.75 0.32 0.17 0.47 0.32 0.18 0.56 0.23 0.02 0.04 0.01 0.00 0.01 0.00 0.00 0.00 0.00 0.00 0.01 0.00 0.02 0.01 0.00 0.01 0.00 0.01 0.02 0.01 0.10 0.01 0.02 0.03 0.03 0.01 0.00 0.01 0.02 0.01 0.01 0.01 0.05 0.02 0.08 0.16 0.20 0.17 0.05 0.04 0.02 0.05 0.06 0.02 0.25 0.45 0.82 0.47 0.05 0.50 0.90 0.51 0.70 0.58 0.46 0.48 0.38 0.48 0.75 0.47 0.33 0.91 1.10 1.17 1.03 1.51 1.26
0.44 0.40 0.26 0.32 0.33 0.43 0.34 0.42 0.25 0.77 0.46 0.67 0.42 0.47 0.24 0.33 0.35 0.25 0.58 0.38 0.34 0.06 0.04 0.03 0.00 0.02 0.00 0.02 0.00 0.00 0.09 0.14 0.00 0.01 0.00 0.00 0.01 0.00 0.05 0.04 0.02 0.01 0.02 0.12 0.01 0.03 0.00 0.00 0.00 0.01 0.06 0.03 0.03 0.15 0.00 0.03 0.16 0.41 0.03 0.04 0.04 0.09 0.05 0.08 0.06 0.19 0.20 0.03 0.08 0.13 0.31 0.67 0.87 0.71 0.49 0.55 0.33 0.53 0.52 0.37 0.74 1.12 0.83 1.48 1.35 1.08 1.24 0.99
0.31 0.26 0.23 0.20 0.34 0.39 0.58 0.58 0.60 0.65 0.53 0.49 0.73 0.40 0.53 0.20 0.31 0.47 0.46 0.35 0.15 0.02 0.15 0.12 0.00 0.03 0.03 0.01 0.00 0.01 0.03 0.01 0.15 0.31 0.03 0.12 0.00 0.02 0.00 0.03 0.04 0.04 0.12 0.02 0.29 0.07 0.00 0.01 0.02 0.03 0.01 0.07 0.14 0.04 0.02 0.01 0.11 0.12 0.02 0.08 0.04 0.01 0.03 0.08 0.12 0.14 0.17 0.41 0.86 0.20 0.26 0.47 0.60 0.49 0.87 0.95 0.71 0.99 0.77 0.54 0.73 0.62 0.64 1.26 0.88 0.69 0.79 0.70
0.28 0.18 0.20 0.33 0.23 0.40 0.35 0.60 0.61 0.87 0.48 0.48 0.29 0.45 0.33 0.62 0.53 0.56 0.75 0.31 0.26 0.07 0.00 0.19 0.01 0.01 0.02 0.01 0.00 0.01 0.01 0.01 0.12 0.29 0.03 0.11 0.01 0.15 0.02 0.02 0.02 0.05 0.03 0.02 0.20 0.02 0.02 0.00 0.00 0.04 0.02 0.13 0.02 0.01 0.01 0.01 0.13 0.06 0.00 0.05 0.08 0.01 0.01 0.07 0.21 0.26 0.26 0.34 0.38 0.23 0.25 0.51 0.57 0.75 0.92 1.38 0.73 0.90 1.05 0.99 0.39 0.33 0.31 0.46 0.54 0.64 0.53 0.71
0.19 0.16 0.17 0.18 0.16 0.26 0.61 0.90 0.51 0.31 0.28 0.43 0.45 0.48 0.42 0.65 0.97 0.47 0.54 0.26 0.22 0.52 0.02 0.06 0.02 0.08 0.01 0.14 0.03 0.09 0.05 0.08 0.05 0.12 0.13 0.11 0.04 0.08 0.00 0.04 0.09 0.19 0.08 0.02 0.01 0.03 0.08 0.00 0.00 0.02 0.02 0.01 0.00 0.00 0.00 0.01 0.02 0.00 0.03 0.13 0.04 0.11 0.12 0.04 0.08 0.20 0.34 0.36 0.40 0.22 0.11 0.26 0.88 0.69 0.43 0.88 0.58 0.25 0.38 0.54 0.41 0.42 1.10 0.83 0.78 0.71 0.48 0.62
0.08 0.15 0.09 0.10 0.55 0.61 0.36 0.41 0.50 0.20 0.32 0.20 0.29 0.42 0.79 0.76 1.00 0.37 0.26 0.39 0.17 0.43 0.05 0.03 0.12 0.03 0.23 0.23 0.31 0.14 0.08 0.05 0.12 0.06 0.27 0.31 0.19 0.06 0.18 0.15 0.13 0.12 0.16 0.17 0.13 0.08 0.05 0.06 0.04 0.01 0.01 0.01 0.00 0.02 0.01 0.00 0.00 0.03 0.09 0.18 0.12 0.34 0.15 0.22 0.37 0.16 0.57 0.65 0.28 0.11 0.15 0.14 0.70 0.59 0.34 0.20 0.18 0.21 0.19 0.27 0.28 0.36 0.36 0.55 0.80 0.36 0.38 0.55
0.34 0.11 0.15 0.21 0.31 0.42 0.24 0.47 0.27 0.29 0.49 0.19 0.32 0.53 0.78 0.97 0.45 0.81 0.35 0.60 0.68 0.73 0.51 0.28 0.15 0.19 0.18 0.33 0.20 0.11 0.13 0.15 0.16 0.08 0.19 0.21 0.15 0.19 0.24 0.20 0.22 0.31 0.26 0.22 0.38 0.04 0.08 0.10 0.03 0.01 0.01 0.01 0.04 0.02 0.11 0.01 0.02 0.04 0.09 0.07 0.58 0.79 0.38 0.61 0.58 0.59 0.38 0.53 0.26 0.09 0.10 0.39 0.55 0.48 0.38 0.29 0.27 0.21 0.12 0.16 0.24 0.31 0.44 0.51 0.67 0.42 0.57 0.55
0.06 0.05 0.06 0.17 0.08 0.15 0.25 0.18 0.16 0.24 0.42 0.29 0.46 1.30 1.10 0.86 0.41 0.33 0.50 0.35 1.78 0.76 0.81 0.35 0.62 0.25 0.21 0.13 0.10 0.06 0.04 0.23 0.11 0.12 0.14 0.28 0.21 0.19 0.20 0.18 0.10 0.12 0.62 0.17 0.35 0.20 0.20 0.05 0.00 0.04 0.02 0.03 0.01 0.06 0.07 0.16 0.05 0.09 0.15 0.25 0.42 0.71 0.37 0.13 0.45 0.21 0.46 0.35 0.08 0.15 0.09 0.37 0.34 0.59 0.26 0.60 0.24 0.62 0.30 0.17 0.52 0.85 0.68 0.33 0.57 0.58 0.85 1.51
0.02 0.02 0.15 0.03 0.03 0.05 0.11 0.18 0.34 0.26 0.32 0.27 0.48 0.95 1.80 0.61 0.25 0.31 0.47 0.63 1.43 0.55 0.46 0.68 0.35 0.46 0.11 0.22 0.25 0.17 0.23 0.11 0.08 0.13 0.09 0.22 0.22 0.23 0.23 0.19 0.04 0.18 0.22 0.23 0.51 0.35 0.46 0.38 0.09 0.07 0.34 0.02 0.02 0.03 0.04 0.16 0.05 0.08 0.02 0.04 0.68 0.47 0.48 0.35 0.38 0.40 0.29 0.56 0.29 0.17 0.22 0.19 0.69 2.26 0.52 0.36 0.31 0.10 0.20 0.22 0.23 0.27 0.55 0.89 0.65 0.70 1.19 2.98
0.02 0.02 0.03 0.06 0.04 0.01 0.09 0.08 0.22 0.16 0.40 0.33 0.68 1.09 0.65 0.27 0.42 0.57 0.95 0.75 0.63 0.72 0.59 0.45 0.41 0.38 0.39 0.21 0.22 0.14 0.06 0.56 0.05 0.12 0.12 0.23 0.34 0.21 0.21 0.18 0.04 0.05 0.18 0.33 0.17 0.19 0.18 0.37 0.21 0.01 0.04 0.02 0.03 0.01 0.00 0.00 0.05 0.07 0.07 0.06 0.13 0.45 0.12 0.49 0.61 0.23 0.56 0.55 0.38 0.15 0.26 0.61 1.27 1.31 0.51 0.28 0.32 0.17 0.19 0.30 0.37 0.45 0.46 0.54 1.42 2.03 2.33 2.09
0.02 0.05 0.04 0.10 0.09 0.05 0.08 0.07 0.39 0.22 0.38 0.57 0.84 0.74 0.63 0.48 1.00 0.94 1.19 0.62 0.70 0.86 0.58 0.45 0.46 0.28 0.22 0.30 0.15 0.12 0.12 0.24 0.27 0.10 0.18 0.13 0.25 0.29 0.18 0.11 0.17 0.03 0.17 0.29 0.14 0.39 0.14 0.57 0.02 0.06 0.01 0.03 0.00 0.00 0.00 0.00 0.43 0.23 0.03 0.24 0.19 0.06 0.09 0.15 0.13 0.11 0.11 0.17 0.23 0.03 0.26 0.46 0.45 1.14 0.64 0.61 0.47 0.48 0.26 0.27 0.19 0.47 0.82 0.93 1.72 1.74 1.48 1.39
0.11 0.05 0.14 0.06 0.07 0.07 0.24 0.19 0.21 0.33 0.39 0.47 0.99 0.57 0.41 0.50 0.51 0.52 0.67 0.91 1.12 0.77 1.12 1.06 0.43 0.43 0.26 0.32 0.32 0.19 0.23 0.05 0.39 0.10 0.37 0.08 0.40 0.20 0.14 0.09 0.02 0.07 0.03 0.06 0.38 0.12 0.36 0.85 0.04 0.02 0.09 0.02 0.01 0.00 0.00 0.00 0.02 0.14 0.18 0.17 0.12 0.14 0.22 0.24 0.62 0.38 0.18 0.55 0.21 0.15 0.29 0.62 0.23 1.34 0.90 0.83 0.90 0.57 0.40 0.34 0.27 0.37 0.70 0.98 1.39 0.95 0.73 1.42
0.14 0.09 0.28 0.11 0.05 0.11 0.22 0.31 0.45 0.49 0.52 0.68 0.67 0.47 0.48 0.80 0.61 0.63 0.52 0.63 0.90 1.04 1.33 1.08 0.71 0.30 0.63 0.37 0.34 0.09 0.29 0.17 0.52 0.21 0.37 0.31 0.82 0.08 0.11 0.14 0.02 0.05 0.06 0.09 0.19 0.50 0.14 0.53 0.17 0.01 0.01 0.03 0.00 0.02 0.06 0.00 0.00 0.12 0.21 0.10 0.17 0.69 0.51 0.21 0.23 0.48 0.40 0.34 0.39 0.36 0.20 0.31 0.42 1.20 0.70 0.86 0.49 0.55 0.51 0.34 0.26 0.38 0.73 1.07 1.28 1.20 0.94 1.18
0.33 0.43 0.56 0.07 0.20 0.13 0.26 0.49 0.48 0.61 0.81 0.77 0.56 0.56 0.46 0.76 0.51 0.64 0.62 0.61 0.63 0.89 1.12 0.70 1.13 0.64 0.63 0.39 0.25 0.14 0.17 0.51 0.25 0.44 0.32 0.43 0.58 0.19 0.17 0.06 0.16 0.03 0.04 0.11 0.22 0.24 0.18 0.43 0.39 0.05 0.04 0.15 0.04 0.06 0.48 0.14 0.01 0.04 0.01 0.08 0.17 0.17 0.42 0.66 0.47 0.69 0.67 0.71 0.34 0.61 0.29 0.82 0.51 0.72 0.33 0.41 0.29 0.42 0.46 0.47 0.43 0.53 0.48 0.52 0.50 0.51 0.58 0.76
0.72 0.58 1.01 0.13 0.15 0.23 0.53 0.42 0.65 0.85 0.96 0.62 0.41 0.61 0.33 0.68 0.39 0.38 0.55 0.65 1.23 0.94 1.20 1.02 0.59 0.90 0.43 0.55 0.24 0.38 0.25 0.21 0.40 0.72 0.22 0.69 0.36 0.08 0.08 0.02 0.17 0.12 0.13 0.13 0.24 0.19 0.49 0.26 0.67 0.16 0.07 0.05 0.44 0.04 0.34 0.17 0.32 0.19 0.11 0.17 0.26 0.24 0.32 0.20 0.63 0.33 0.64 0.57 0.53 0.48 0.55 1.02 0.84 0.37 0.48 0.30 0.59 0.53 0.40 0.35 0.45 0.58 1.00 0.81 1.28 1.20 0.94 0.51
0.39 1.01 1.01 0.34 0.24 0.40 0.66 0.84 0.92 0.93 0.69 0.35 0.43 0.56 0.36 0.75 0.60 0.77 0.42 0.56 0.90 0.54 0.75 0.78 0.78 0.70 0.37 0.41 0.40 0.26 0.24 0.37 0.37 0.48 0.20 0.33 0.28 0.61 0.17 0.11 0.11 0.42 0.36 0.45 0.33 0.46 0.51 0.44 0.52 0.42 0.26 0.23 0.30 0.04 0.10 0.14 0.27 0.41 0.28 0.42 0.41 0.63 1.01 0.89 0.91 0.18 0.36 0.48 0.60 0.38 0.56 0.85 0.70 0.30 0.96 0.68 0.41 0.87 0.67 0.71 0.72 0.83 0.73 0.97 1.05 0.77 0.76 1.10
0.61 1.04 1.40 0.43 0.37 0.49 0.82 1.17 0.84 0.77 0.80 0.75 0.68 0.59 0.73 0.55 0.73 0.53 0.55 0.57 0.35 0.58 0.37 0.46 0.27 0.35 0.28 0.33 0.27 0.18 0.45 0.25 0.21 0.34 0.28 0.39 0.41 0.20 0.31 0.14 0.24 0.29 0.53 0.80 0.59 0.33 0.39 0.81 0.55 0.49 0.30 0.89 0.23 0.09 0.08 0.16 0.18 0.27 0.11 0.52 0.53 0.35 0.28 0.66 0.67 0.62 0.23 0.36 0.18 0.59 0.44 1.17 0.73 0.44 1.35 1.21 0.59 0.55 0.69 0.61 0.59 0.73 0.82 0.88 0.92 1.04 0.56 0.69
0.85 2.00 1.28 0.49 0.32 0.53 1.05 0.99 0.67 0.84 0.79 0.68 0.42 0.37 0.40 0.59 0.73 0.50 0.46 0.53 0.54 0.33 0.54 0.52 0.45 0.39 0.30 0.54 0.20 0.29 0.25 0.43 0.18 0.58 0.20 0.31 0.28 0.25 0.11 0.49 0.27 0.44 0.54 1.13 0.37 0.67 0.55 0.57 0.67 0.42 0.18 0.19 0.21 0.17 0.11 0.23 0.60 0.26 0.12 0.27 0.37 0.51 0.44 0.43 0.63 0.69 0.59 0.57 0.46 0.59 0.32 1.16 0.52 0.61 0.90 0.95 1.11 1.76 1.25 0.71 0.64 0.52 0.38 0.80 1.21 0.94 0.82 0.38
0.96 2.21 1.35 0.55 0.35 0.76 1.59 1.18 1.12 0.89 0.97 0.72 0.67 0.64 0.46 0.92 0.80 0.56 0.52 0.48 0.62 0.57 0.84 0.36 0.43 0.55 0.61 0.17 0.24 0.20 0.33 0.53 0.20 0.10 0.24 0.18 0.27 0.06 0.27 0.52 0.36 0.65 0.66 1.12 0.81 1.22 0.89 0.78 0.55 1.20 0.78 1.08 0.59 0.45 0.61 0.32 0.24 0.32 0.35 0.32 0.32 0.27 0.20 0.30 0.41 0.41 0.48 0.34 0.52 0.75 0.91 1.30 0.85 0.49 0.77 0.63 1.09 1.78 1.53 1.27 1.18 1.11 1.37 1.54 1.19 0.75 0.63 0.99
1.49 1.26 0.81 0.91 0.42 0.96 1.79 1.64 1.50 1.12 0.91 0.92 0.86 0.85 0.90 0.78 0.87 0.67 0.63 0.49 0.34 0.46 0.45 0.54 0.29 0.25 0.21 0.10 0.23 0.22 0.34 0.50 0.50 0.36 0.13 0.20 0.50 0.03 0.24 0.28 0.33 0.65 0.40 0.46 0.69 0.95 0.77 1.10 0.76 1.28 1.49 1.51 1.39 1.48 1.37 1.08 0.55 0.32 0.20 0.30 0.23 0.18 0.47 0.57 0.59 0.54 0.53 0.40 0.47 0.72 0.79 0.85 0.77 0.45 0.53 0.42 0.53 0.71 0.93 1.26 0.85 0.63 0.79 0.90 0.75 0.82 0.69 0.90
1.56 0.91 0.57 0.61 1.08 1.53 1.21 1.14 1.44 1.45 1.15 0.96 0.82 1.03 1.20 1.33 0.86 0.77 0.43 0.43 0.33 0.32 0.65 0.34 0.20 0.16 0.17 0.29 0.09 0.22 0.36 0.21 0.37 0.42 0.27 0.30 0.33 0.14 0.18 0.26 0.36 0.38 0.26 0.37 0.96 0.92 0.94 0.77 0.94 0.90 1.12 1.74 1.16 0.82 1.00 0.73 0.69 0.55 0.54 0.38 0.26 0.20 0.20 0.49 0.59 0.84 0.67 0.58 0.51 0.60 0.77 0.95 0.88 0.82 0.54 0.56 0.63 0.95 0.69 0.61 0.52 0.74 0.65 0.56 0.57 0.64 0.66 0.91
1.23 1.06 0.33 0.46 0.45 0.78 1.21 1.08 1.35 1.50 1.65 1.33 1.43 0.76 1.01 0.89 0.58 0.75 0.42 0.67 0.30 0.89 0.50 0.44 0.25 0.27 0.33 0.59 0.21 0.31 0.28 0.59 0.36 0.15 0.30 0.44 0.22 0.13 0.39 0.31 0.62 0.36 0.48 0.57 0.85 1.19 1.11 0.79 0.67 0.85 0.70 0.79 0.61 0.74 0.58 0.61 0.75 0.54 0.44 0.38 0.24 0.26 0.34 0.55 0.46 0.76 0.72 0.84 0.68 0.82 0.83 0.68 0.85 0.67 0.58 0.62 0.69 0.76 0.68 0.73 0.51 0.52 0.43 0.47 0.45 0.41 0.38 0.37
1.36 0.72 0.33 0.55 1.02 0.67 1.03 1.46 1.19 1.66 1.41 1.75 1.38 0.78 0.78 0.80 0.56 0.85 0.48 0.43 0.67 0.35 0.76 0.63 0.69 0.57 0.34 0.54 0.28 0.24 0.25 0.39 0.31 0.20 0.45 0.22 0.08 0.18 0.35 0.32 0.54 0.50 0.48 0.51 0.45 0.85 1.23 0.92 0.69 0.90 1.25 0.54 0.54 0.34 0.41 0.66 0.50 0.60 0.60 0.53 0.61 0.51 0.43 0.42 0.45 0.41 0.60 0.66 1.19 0.88 0.90 0.70 0.73 0.66 0.62 0.65 0.67 0.82 0.59 0.58 0.60 0.46 0.43 0.41 0.43 0.41 0.39 0.41
1.31 0.44 0.67 0.22 0.57 0.56 0.98 0.98 1.28 1.40 1.69 1.58 1.46 0.81 0.79 0.57 0.54 0.59 0.59 0.53 0.40 0.57 0.29 0.73 1.09 0.87 0.75 0.27 0.42 0.49 0.52 0.81 0.33 0.20 0.43 0.60 0.54 0.47 0.55 0.45 0.54 0.55 0.74 0.65 0.76 0.76 0.89 0.82 0.94 0.85 1.03 1.20 0.83 0.36 0.32 0.55 0.70 0.37 0.33 0.38 0.36 0.49 0.59 0.51 0.34 0.24 0.38 0.46 0.45 0.52 0.44 0.54 0.70 0.67 0.54 0.74 0.65 0.59 0.52 0.35 0.37 0.42 0.32 0.24 0.41 0.30 0.32 0.27
1.28 1.39 0.52 0.15 0.35 0.15 0.31 0.59 0.87 1.27 1.75 1.41 1.31 0.86 0.71 0.49 0.53 0.28 0.27 0.54 0.63 0.53 0.29 0.61 0.94 0.88 0.46 0.44 0.34 0.47 0.75 0.62 0.32 0.37 0.44 0.53 0.59 0.67 1.25 0.93 1.52 0.82 0.65 0.73 0.68 0.82 0.71 0.82 0.65 1.19 1.55 0.98 0.76 0.40 0.43 0.61 0.57 0.62 0.34 0.34 0.32 0.32 0.36 0.45 0.47 0.51 0.43 0.50 0.42 0.55 0.36 0.59 0.70 0.52 0.93 1.02 0.67 1.29 1.04 0.70 0.61 0.64 0.61 0.46 0.46 0.41 0.26 0.23
0.99 0.84 0.88 0.95 0.60 0.31 0.35 0.47 0.63 0.94 1.57 1.54 1.48 0.95 0.88 0.44 0.59 0.40 0.38 0.25 0.38 0.56 0.39 0.78 1.09 0.56 0.66 0.88 1.15 0.72 0.55 0.39 0.25 0.42 0.46 0.46 0.64 0.65 0.81 1.21 0.66 1.75 1.48 1.25 0.98 1.91 0.88 1.26 0.61 1.21 1.47 1.17 0.63 0.45 0.45 0.67 0.55 0.51 0.52 0.50 0.41 0.40 0.56 0.57 0.69 0.63 0.75 1.13 0.90 1.04 0.65 0.71 1.12 0.67 0.60 1.14 0.70 0.44 0.64 0.55 0.39 0.42 0.84 0.76 0.63 0.49 0.63 0.60
0.95 0.50 0.60 0.83 0.94 0.26 0.48 0.33 0.52 0.76 0.98 1.33 1.60 1.27 1.20 0.93 0.86 0.43 0.94 0.47 0.48 0.28 0.52 0.85 1.72 1.35 1.41 1.77 1.03 0.32 0.51 0.25 0.26 0.22 0.28 0.15 0.29 0.22 0.84 0.83 0.61 0.80 1.16 0.92 1.19 1.26 1.03 0.66 0.76 1.22 1.64 1.25 1.24 0.64 0.70 0.59 0.67 1.15 0.98 0.64 0.54 0.61 0.45 0.43 0.43 0.46 0.64 0.87 1.26 1.41 1.08 1.04 0.97 0.84 0.72 1.02 0.68 0.55 0.49 0.54 1.09 0.90 0.65 0.63 0.68 0.36 0.17 0.14